Change the Weather History Date:

Tuesday, April 23, 2013

  Actual Average Record
Temperature  
Mean Temperature 49 °F -  
Max Temperature 55 °F 67 °F 91 °F (1960)
Min Temperature 44 °F 45 °F 29 °F (1986)
Degree Days  
Heating Degree Days 16    
Moisture  
Dew Point 43 °F    
Average Humidity 81    
Maximum Humidity 89    
Minimum Humidity 67    
Precipitation  
Precipitation 0.00 in - - ()
Sea Level Pressure  
Sea Level Pressure 30.23 in    
Wind  
Wind Speed 12 mph (NNE)    
Max Wind Speed 15 mph    
Max Gust Speed 22 mph    
Visibility 10 miles    
Events      
Averages and records for this station are not official NWS values.
T = Trace of Precipitation, MM = Missing Value Source: NWS Daily Summary

Daily Weather History Graph

Daily Weather History Graph

Search for Another Location

Airport or City:

Trip Planner

Search our weather history database for the weather conditions in past years. The results will help you decide how hot, cold, wet, or windy it might be!

Date:

Astronomy

Apr. 23, 2013 Rise Set
Actual Time 6:13 AM EDT 7:47 PM EDT
Civil Twilight 5:45 AM EDT 8:15 PM EDT
Nautical Twilight 5:11 AM EDT 8:49 PM EDT
Astronomical Twilight 4:35 AM EDT 9:25 PM EDT
Moon 5:40 PM EDT (4/23) 4:39 AM EDT (4/23)
Length of Visible Light 14h 30m
Length of Day
13h 33m
Waxing Gibbous, 94% of the Moon is Illuminated
Apr 23
Waxing Gibbous
Apr 25
Full
May 2
Last Quarter
May 9
New
May 18
First Quarter

Hourly Weather History & Observations

Time (EDT) Temp. Windchill Dew Point Humidity Pressure Visibility Wind Dir Wind Speed Gust Speed Precip Events Conditions
12:55 AM 46.8 °F - 43.2 °F 87% 30.40 in 10.0 mi NE 15.0 mph - N/A   Overcast
1:55 AM 46.4 °F 40.4 °F 42.8 °F 87% 30.38 in 10.0 mi NE 13.8 mph - N/A   Overcast
2:55 AM 45.9 °F 39.7 °F 41.7 °F 85% 30.35 in 10.0 mi NE 13.8 mph - N/A   Overcast
3:08 AM 46.4 °F 40.7 °F 41.0 °F 81% 30.35 in 10.0 mi NE 12.7 mph - N/A   Overcast
3:55 AM 45.5 °F 38.9 °F 40.5 °F 83% 30.33 in 10.0 mi NE 15.0 mph 21.9 mph N/A   Overcast
4:55 AM 45.0 °F 38.9 °F 39.9 °F 82% 30.32 in 10.0 mi NNE 12.7 mph - N/A   Overcast
5:55 AM 44.6 °F 38.1 °F 39.2 °F 81% 30.31 in 10.0 mi NNE 13.8 mph - N/A   Overcast
6:55 AM 44.2 °F 37.3 °F 38.8 °F 81% 30.32 in 10.0 mi NNE 15.0 mph - N/A   Overcast
7:55 AM 45.1 °F 39.5 °F 39.4 °F 80% 30.32 in 10.0 mi NNE 11.5 mph - N/A   Overcast
8:55 AM 46.2 °F 39.8 °F 40.5 °F 80% 30.30 in 10.0 mi NNE 15.0 mph - N/A   Overcast
9:55 AM 47.8 °F - 40.8 °F 77% 30.30 in 10.0 mi NNE 13.8 mph - N/A   Overcast
10:55 AM 49.3 °F - 41.2 °F 74% 30.28 in 10.0 mi North 11.5 mph 20.7 mph N/A   Overcast
11:55 AM 52.0 °F - 42.3 °F 69% 30.26 in 10.0 mi NNE 13.8 mph - N/A   Overcast
12:55 PM 52.7 °F - 42.3 °F 68% 30.23 in 10.0 mi North 10.4 mph - N/A   Overcast
1:55 PM 54.0 °F - 43.3 °F 67% 30.21 in 10.0 mi North 13.8 mph - N/A   Overcast
2:55 PM 53.8 °F - 43.2 °F 67% 30.22 in 10.0 mi North 11.5 mph - N/A   Overcast
3:55 PM 54.1 °F - 43.9 °F 68% 30.22 in 10.0 mi NNW 11.5 mph - N/A   Overcast
4:55 PM 53.2 °F - 45.0 °F 73% 30.20 in 10.0 mi NNE 10.4 mph - N/A   Overcast
5:55 PM 51.6 °F - 45.5 °F 80% 30.18 in 10.0 mi NNE 11.5 mph - N/A   Overcast
6:47 PM 50.0 °F - 44.6 °F 82% 30.15 in 10.0 mi NNE 11.5 mph - N/A   Scattered Clouds
6:55 PM 50.4 °F - 44.8 °F 81% 30.15 in 10.0 mi NE 11.5 mph - N/A   Scattered Clouds
7:09 PM 50.0 °F - 44.6 °F 82% 30.14 in 10.0 mi NNE 9.2 mph - N/A   Mostly Cloudy
7:50 PM 48.2 °F - 44.6 °F 87% 30.15 in 10.0 mi NNE 5.8 mph - N/A   Overcast
7:55 PM 48.9 °F - 44.6 °F 85% 30.16 in 10.0 mi NNE 6.9 mph - N/A   Overcast
8:26 PM 48.2 °F - 44.6 °F 87% 30.17 in 10.0 mi North 5.8 mph - N/A   Overcast
8:55 PM 48.9 °F - 45.0 °F 86% 30.17 in 10.0 mi North 6.9 mph - N/A   Overcast
9:13 PM 48.2 °F - 44.6 °F 87% 30.16 in 10.0 mi North 6.9 mph - N/A   Overcast
9:48 PM 48.2 °F - 44.6 °F 87% 30.16 in 10.0 mi NNE 4.6 mph - N/A   Overcast
9:55 PM 48.4 °F - 44.4 °F 86% 30.16 in 10.0 mi North 4.6 mph - N/A   Overcast
9:56 PM 48.2 °F - 44.6 °F 87% 30.16 in 10.0 mi North 3.5 mph - N/A   Overcast
10:29 PM 48.2 °F - 44.6 °F 87% 30.17 in 10.0 mi NW 3.5 mph - N/A   Overcast
10:46 PM 48.2 °F - 44.6 °F 87% 30.16 in 10.0 mi North 3.5 mph - N/A   Overcast
10:55 PM 47.3 °F - 44.2 °F 89% 30.15 in 10.0 mi North 4.6 mph - N/A   Overcast
11:55 PM 48.4 °F - 44.2 °F 86% 30.15 in 10.0 mi Calm Calm - N/A   Overcast